period_start,C,m1,H,J0,J1,J2,J3,J4,J5,JA,JB,JC,JD,JJ,JK,JN,#
2014-12-11 00:01:54,0.25,3.55,0.00,22.70,27.31,30.45,4.79,26.43,1027.85,2029.37,2276.41,2420.89,2625.48,349.69,351.55,19.25,0000 0000 0000 0000 000000
2014-12-11 00:06:55,0.23,3.55,0.00,22.64,27.32,30.44,4.81,26.47,1027.85,2029.19,2274.43,2419.49,2623.82,350.01,351.79,19.27,0000 0000 0000 0000 000000
2014-12-11 00:11:56,0.21,3.56,0.00,22.64,27.33,30.47,4.86,26.39,1027.83,2029.07,2272.57,2417.98,2622.45,350.31,352.02,19.30,0000 0000 0000 0000 000000
2014-12-11 00:16:57,0.26,3.57,0.00,22.69,27.35,30.49,4.90,26.52,1027.69,2029.04,2270.56,2416.59,2620.91,349.98,351.82,19.33,0000 0000 0000 0000 000000
2014-12-11 00:21:59,0.24,3.57,0.00,22.70,27.36,30.49,4.80,26.36,1027.59,2029.04,2268.58,2415.17,2619.39,349.64,351.44,19.36,0000 0000 0000 0000 000000
2014-12-11 00:27:00,0.28,3.58,0.00,22.72,27.37,30.51,4.85,26.41,1027.48,2029.02,2266.59,2413.64,2617.76,350.23,351.83,19.39,0000 0000 0000 0000 000000
2014-12-11 00:32:01,0.23,3.59,0.00,22.69,27.39,30.53,4.89,26.56,1027.40,2029.01,2264.70,2412.22,2616.19,350.08,351.85,19.42,0000 0000 0000 0000 000000
2014-12-11 00:37:02,0.27,3.60,0.00,22.69,27.40,30.53,4.90,26.63,1027.38,2029.00,2262.76,2410.73,2614.64,350.13,351.95,19.45,0000 0000 0000 0000 000000
2014-12-11 00:42:04,0.26,3.61,0.00,22.69,27.41,30.54,4.88,26.61,1027.39,2029.00,2260.68,2409.22,2612.93,349.70,351.41,19.48,0000 0000 0000 0000 000000
2014-12-11 00:47:05,0.26,3.61,0.00,22.70,27.42,30.56,4.76,26.42,1027.36,2028.99,2258.75,2407.79,2611.43,349.77,351.45,19.51,0000 0000 0000 0000 000000
2014-12-11 00:52:07,0.27,3.62,0.00,22.75,27.44,30.57,4.80,26.45,1027.36,2028.99,2256.71,2406.28,2609.75,349.70,351.28,19.54,0000 0000 0000 0000 000000
2014-12-11 00:57:09,0.26,3.63,0.00,22.77,27.45,30.61,4.83,26.54,1027.36,2028.99,2254.66,2404.76,2608.24,349.59,351.23,19.57,0000 0000 0000 0000 000000
2014-12-11 01:02:10,0.26,3.64,0.00,22.80,27.47,30.61,4.83,26.44,1027.36,2028.96,2252.61,2403.30,2606.60,350.14,351.74,19.60,0000 0000 0000 0000 000000
2014-12-11 01:07:11,0.28,3.65,0.00,22.76,27.48,30.65,4.85,26.55,1027.36,2028.97,2250.51,2401.80,2604.98,349.64,351.35,19.63,0000 0000 0000 0000 000000
2014-12-11 01:12:12,0.26,3.65,0.00,22.80,27.50,30.64,4.84,26.59,1027.36,2028.97,2248.45,2400.33,2603.40,350.34,351.99,19.66,0000 0000 0000 0000 000000
2014-12-11 01:17:14,0.33,3.66,0.00,22.79,27.51,30.63,4.88,26.50,1027.36,2028.92,2246.08,2398.52,2601.52,350.50,352.01,19.68,0000 0000 0000 0000 000000
2014-12-11 01:22:15,0.32,3.67,0.00,22.80,27.52,30.67,4.79,26.56,1027.36,2028.61,2243.09,2396.40,2599.29,350.14,351.77,19.71,0000 0000 0000 0000 000000
2014-12-11 01:27:17,0.27,3.68,0.00,22.82,27.54,30.66,4.86,26.54,1027.37,2028.21,2240.37,2394.45,2597.16,350.65,351.94,19.74,0000 0000 0000 0000 000000
2014-12-11 01:32:18,0.29,3.69,0.00,22.85,27.55,30.69,4.83,26.57,1027.37,2028.07,2238.10,2392.70,2595.31,349.70,351.27,19.77,0000 0000 0000 0000 000000
2014-12-11 01:37:19,0.29,3.70,0.00,22.79,27.57,30.70,4.89,26.57,1027.37,2028.04,2235.84,2391.03,2593.57,349.79,351.37,19.80,0000 0000 0000 0000 000000
2014-12-11 01:42:21,0.28,3.71,0.00,22.83,27.57,30.75,4.91,26.67,1027.36,2028.00,2233.63,2389.44,2591.85,349.97,351.53,19.83,0000 0000 0000 0000 000000
2014-12-11 01:47:22,0.32,3.71,0.00,22.85,27.59,30.73,4.90,26.57,1027.37,2028.00,2231.27,2387.74,2590.01,349.94,351.43,19.86,0000 0000 0000 0000 000000
2014-12-11 01:52:23,0.33,3.72,0.00,22.82,27.60,30.72,4.90,26.60,1027.36,2028.00,2228.71,2385.96,2588.14,349.91,351.48,19.89,0000 0000 0000 0000 000000
2014-12-11 01:57:25,0.38,3.74,0.00,22.84,27.62,30.75,4.86,26.52,1027.37,2028.00,2225.95,2383.96,2586.00,349.85,351.52,19.92,0000 0000 0000 0000 000000
2014-12-11 02:02:26,0.43,3.75,0.00,22.87,27.62,30.76,4.84,26.43,1027.36,2028.00,2222.60,2381.59,2583.52,350.12,351.53,19.95,0000 0000 0000 0000 000000
2014-12-11 02:07:27,0.33,3.76,0.00,22.90,27.65,30.76,4.81,26.41,1027.36,2028.00,2220.04,2379.71,2581.52,349.59,351.19,19.98,0000 0000 0000 0000 000000
2014-12-11 02:12:29,0.31,3.77,0.00,22.88,27.65,30.77,4.84,26.48,1027.36,2028.00,2217.73,2378.03,2579.75,349.70,351.17,20.01,0000 0000 0000 0000 000000
2014-12-11 02:17:30,0.40,3.78,0.00,22.87,27.67,30.80,4.83,26.52,1027.36,2027.99,2214.84,2376.02,2577.55,349.74,351.24,20.04,0000 0000 0000 0000 000000
2014-12-11 02:22:31,0.44,3.79,0.00,22.91,27.68,30.81,4.85,26.38,1027.36,2027.99,2211.49,2373.68,2575.13,350.13,351.83,20.07,0000 0000 0000 0000 000000
2014-12-11 02:27:32,0.43,3.80,0.00,22.94,27.70,30.82,4.89,26.48,1027.34,2027.95,2208.07,2371.24,2572.55,350.32,351.74,20.10,0000 0000 0000 0000 000000
2014-12-11 02:32:34,0.41,3.82,0.00,22.93,27.70,30.84,4.88,26.35,1027.34,2027.97,2204.91,2369.04,2570.22,350.53,351.97,20.12,0000 0000 0000 0000 000000
2014-12-11 02:37:35,0.33,3.83,0.00,22.99,27.72,30.83,4.79,26.52,1027.31,2027.87,2202.19,2367.23,2568.18,349.71,351.00,20.15,0000 0000 0000 0000 000000
2014-12-11 02:42:36,0.36,3.84,0.00,22.96,27.73,30.87,4.89,26.56,1027.32,2027.84,2199.45,2365.35,2566.09,350.09,351.69,20.18,0000 0000 0000 0000 000000
2014-12-11 02:47:38,0.29,3.85,0.00,22.96,27.75,30.88,4.86,26.40,1027.17,2027.69,2197.05,2363.60,2564.16,350.04,351.38,20.21,0000 0000 0000 0000 000000
2014-12-11 02:52:39,0.28,3.85,0.00,22.97,27.75,30.89,4.88,26.43,1027.09,2027.36,2194.58,2361.64,2562.17,350.44,351.75,20.24,0000 0000 0000 0000 000000
2014-12-11 02:57:40,0.33,3.86,0.00,22.94,27.77,30.92,4.80,26.47,1027.02,2027.31,2192.17,2359.77,2560.16,349.50,350.87,20.27,0000 0000 0000 0000 000000
2014-12-11 03:02:41,0.26,3.87,0.00,22.98,27.78,30.96,4.81,26.56,1027.20,2027.20,2189.88,2358.14,2558.62,349.91,351.17,20.30,0000 0000 0000 0000 000000
2014-12-11 03:07:42,0.29,3.88,0.00,23.01,27.80,30.98,4.84,26.40,1027.33,2027.06,2187.61,2356.47,2556.84,349.96,351.39,20.33,0000 0000 0000 0000 000000
2014-12-11 03:12:43,0.28,3.89,0.00,23.01,27.80,30.98,4.84,26.48,1027.32,2027.00,2185.45,2354.81,2555.15,349.80,351.16,20.36,0000 0000 0000 0000 000000
2014-12-11 03:17:44,0.27,3.90,0.00,23.02,27.82,30.98,4.85,26.53,1027.26,2027.00,2183.43,2353.35,2553.50,350.05,351.11,20.39,0000 0000 0000 0000 000000
2014-12-11 03:22:46,0.28,3.91,0.00,23.01,27.83,31.01,4.84,26.63,1027.10,2027.00,2181.36,2351.85,2551.90,349.88,351.21,20.42,0000 0000 0000 0000 000000
2014-12-11 03:27:47,0.26,3.91,0.00,23.03,27.85,31.01,4.87,26.58,1026.90,2027.00,2179.48,2350.48,2550.42,350.10,351.28,20.45,0000 0000 0000 0000 000000
2014-12-11 03:32:48,0.25,3.92,0.00,23.01,27.85,31.02,4.83,26.35,1026.94,2027.00,2177.64,2349.05,2548.83,350.09,351.29,20.48,0000 0000 0000 0000 000000
2014-12-11 03:37:49,0.27,3.93,0.00,22.98,27.87,31.03,4.78,26.54,1026.94,2026.99,2175.78,2347.65,2547.38,349.44,350.66,20.50,0000 0000 0000 0000 000000
2014-12-11 03:42:50,0.23,3.94,0.00,22.98,27.87,31.06,4.87,26.50,1027.03,2026.95,2173.99,2346.20,2545.80,350.30,351.57,20.53,0000 0000 0000 0000 000000
2014-12-11 03:47:52,0.22,3.94,0.00,22.99,27.88,31.08,4.77,26.45,1026.91,2026.98,2172.48,2344.98,2544.52,349.59,350.72,20.56,0000 0000 0000 0000 000000
2014-12-11 03:52:53,0.24,3.95,0.00,23.10,27.90,31.07,4.91,26.41,1026.90,2026.95,2170.80,2343.75,2543.18,350.62,351.71,20.59,0000 0000 0000 0000 000000
2014-12-11 03:57:54,0.28,3.96,0.00,23.05,27.90,31.10,4.87,26.38,1026.88,2026.88,2168.59,2342.31,2541.56,350.25,351.42,20.62,0000 0000 0000 0000 000000
2014-12-11 04:02:55,0.32,3.97,0.00,23.04,27.91,31.11,4.82,26.50,1026.88,2026.89,2166.29,2340.68,2539.90,349.96,351.02,20.65,0000 0000 0000 0000 000000
2014-12-11 04:07:56,0.26,3.98,0.00,23.00,27.92,31.10,4.78,26.53,1026.88,2026.77,2164.00,2339.14,2538.22,349.33,350.28,20.68,0000 0000 0000 0000 000000
2014-12-11 04:12:57,0.22,3.98,0.00,23.01,27.92,31.09,4.87,26.35,1026.88,2026.43,2161.79,2337.60,2536.61,349.83,350.96,20.71,0000 0000 0000 0000 000000
2014-12-11 04:17:59,0.24,3.99,0.00,23.04,27.92,31.11,4.85,26.37,1026.87,2026.22,2159.66,2336.16,2535.07,350.63,351.78,20.74,0000 0000 0000 0000 000000
2014-12-11 04:23:00,0.29,4.00,0.00,23.02,27.93,31.13,4.81,26.36,1026.87,2026.20,2157.56,2334.69,2533.51,350.19,351.36,20.77,0000 0000 0000 0000 000000
2014-12-11 04:28:01,0.26,4.01,0.00,23.05,27.95,31.11,4.83,26.38,1026.87,2026.05,2155.44,2333.17,2531.81,349.80,350.94,20.80,0000 0000 0000 0000 000000
2014-12-11 04:33:02,0.31,4.01,0.00,23.08,27.95,31.11,4.91,26.43,1026.87,2026.01,2153.13,2331.63,2530.17,350.12,351.27,20.83,0000 0000 0000 0000 000000
2014-12-11 04:38:04,0.28,4.02,0.00,23.03,27.95,31.11,4.87,26.60,1026.87,2026.01,2150.88,2330.10,2528.65,350.06,351.25,20.86,0000 0000 0000 0000 000000
2014-12-11 04:43:05,0.26,4.03,0.00,23.07,27.95,31.14,4.79,26.46,1026.85,2026.00,2148.87,2328.75,2527.14,349.78,351.00,20.89,0000 0000 0000 0000 000000
2014-12-11 04:48:07,0.25,4.04,0.00,23.11,27.95,31.14,4.81,26.48,1026.84,2026.01,2147.03,2327.46,2525.68,349.43,350.28,20.91,0000 0000 0000 0000 000000
2014-12-11 04:53:08,0.24,4.05,0.00,23.12,27.96,31.15,4.86,26.40,1026.86,2026.01,2145.24,2326.15,2524.30,349.42,350.44,20.94,0000 0000 0000 0000 000000
2014-12-11 04:58:10,0.29,4.05,0.00,23.11,27.97,31.17,4.80,26.43,1026.86,2026.00,2143.26,2324.76,2522.81,349.94,350.93,20.97,0000 0000 0000 0000 000000
2014-12-11 05:03:11,0.26,4.06,0.00,23.11,27.97,31.14,4.83,26.38,1026.87,2026.00,2141.17,2323.41,2521.40,350.08,351.10,21.00,0000 0000 0000 0000 000000
2014-12-11 05:08:12,0.24,4.07,0.00,23.12,27.97,31.17,4.89,26.40,1026.87,2026.00,2139.25,2322.07,2519.99,350.39,351.44,21.03,0000 0000 0000 0000 000000
2014-12-11 05:13:14,0.26,4.08,0.00,23.09,27.97,31.15,4.86,26.48,1026.84,2026.00,2137.49,2320.76,2518.57,350.13,351.03,21.06,0000 0000 0000 0000 000000
2014-12-11 05:18:15,0.21,4.08,0.00,23.04,27.97,31.15,4.83,26.36,1026.68,2026.00,2135.97,2319.64,2517.40,349.47,350.65,21.09,0000 0000 0000 0000 000000
2014-12-11 05:23:16,0.20,4.09,0.00,23.05,27.97,31.13,4.82,26.44,1026.46,2026.00,2134.50,2318.56,2516.20,349.86,350.99,21.12,0000 0000 0000 0000 000000
2014-12-11 05:28:17,0.19,4.10,0.00,22.99,27.97,31.13,4.84,26.38,1026.39,2026.00,2133.01,2317.55,2515.11,349.95,351.25,21.15,0000 0000 0000 0000 000000
2014-12-11 05:33:19,0.18,4.10,0.00,22.98,27.98,31.14,4.83,26.35,1026.39,2026.00,2131.80,2316.64,2514.04,349.78,350.96,21.18,0000 0000 0000 0000 000000
2014-12-11 05:38:20,0.18,4.11,0.00,23.00,27.97,31.18,4.92,26.63,1026.40,2025.99,2130.52,2315.66,2512.98,350.09,350.99,21.21,0000 0000 0000 0000 000000
2014-12-11 05:43:22,0.14,4.11,0.00,22.98,27.97,31.12,4.86,26.52,1026.39,2025.99,2129.42,2314.79,2512.03,349.68,350.72,21.24,0000 0000 0000 0000 000000
2014-12-11 05:48:23,0.16,4.12,0.00,23.02,27.98,31.16,4.81,26.33,1026.40,2025.99,2128.18,2313.88,2511.15,350.32,351.41,21.27,0000 0000 0000 0000 000000
2014-12-11 05:53:24,0.18,4.12,0.00,23.03,27.99,31.14,4.88,26.32,1026.39,2025.99,2126.91,2312.94,2510.17,350.65,351.60,21.30,0000 0000 0000 0000 000000
2014-12-11 05:58:25,0.19,4.13,0.00,23.00,27.99,31.12,4.86,26.53,1026.40,2025.99,2125.66,2311.98,2509.14,349.61,350.84,21.32,0000 0000 0000 0000 000000
2014-12-11 06:03:27,0.18,4.13,0.00,22.97,27.99,31.16,4.84,26.50,1026.40,2025.99,2124.36,2311.03,2508.16,350.03,351.20,21.35,0000 0000 0000 0000 000000
2014-12-11 06:08:28,0.19,4.14,0.00,23.02,27.99,31.16,4.82,26.39,1026.41,2025.99,2123.01,2309.98,2507.02,350.05,350.84,21.38,0000 0000 0000 0000 000000
2014-12-11 06:13:29,0.23,4.15,0.00,23.02,28.00,31.14,4.83,26.42,1026.41,2025.98,2121.55,2308.88,2505.84,350.03,350.93,21.41,0000 0000 0000 0000 000000
2014-12-11 06:18:30,0.19,4.15,0.00,23.02,28.00,31.17,4.93,26.43,1026.39,2025.99,2120.12,2307.85,2504.78,350.42,351.42,21.44,0000 0000 0000 0000 000000
2014-12-11 06:23:31,0.23,4.16,0.00,23.07,28.00,31.14,4.87,26.42,1026.39,2025.98,2118.67,2306.74,2503.61,350.30,351.32,21.47,0000 0000 0000 0000 000000
2014-12-11 06:28:32,0.21,4.16,0.00,23.06,28.00,31.14,4.83,26.38,1026.40,2025.97,2117.13,2305.62,2502.36,349.70,350.88,21.50,0000 0000 0000 0000 000000
2014-12-11 06:33:34,0.19,4.17,0.00,23.01,28.00,31.17,4.84,26.31,1026.41,2025.98,2115.82,2304.65,2501.34,349.97,350.99,21.53,0000 0000 0000 0000 000000
2014-12-11 06:38:35,0.18,4.17,0.00,23.01,28.00,31.16,4.81,26.34,1026.40,2025.96,2114.59,2303.69,2500.26,349.62,350.51,21.56,0000 0000 0000 0000 000000
2014-12-11 06:43:36,0.13,4.18,0.00,23.01,28.00,31.16,4.85,26.37,1026.40,2025.98,2113.48,2302.92,2499.32,349.99,351.17,21.59,0000 0000 0000 0000 000000
2014-12-11 06:48:37,0.17,4.19,0.00,22.95,28.00,31.13,4.79,26.36,1026.40,2025.99,2112.34,2302.04,2498.36,349.73,350.86,21.62,0000 0000 0000 0000 000000
2014-12-11 06:53:39,0.17,4.19,0.00,22.96,28.00,31.15,4.90,26.48,1026.42,2025.99,2111.16,2301.14,2497.38,349.85,351.02,21.65,0000 0000 0000 0000 000000
2014-12-11 06:58:40,0.16,4.19,0.00,23.01,28.00,31.15,4.91,26.42,1026.46,2025.99,2110.19,2300.26,2496.52,350.61,351.64,21.68,0000 0000 0000 0000 000000
2014-12-11 07:03:41,0.17,4.20,0.00,22.98,28.00,31.11,4.86,26.52,1026.60,2025.98,2109.08,2299.39,2495.56,350.07,351.01,21.71,0000 0000 0000 0000 000000
2014-12-11 07:08:43,0.15,4.20,0.00,22.94,28.00,31.11,4.81,26.38,1026.61,2025.98,2107.89,2298.41,2494.75,349.59,350.79,21.73,0000 0000 0000 0000 000000
2014-12-11 07:13:44,0.19,4.21,0.00,22.97,27.99,31.11,4.79,26.52,1026.49,2025.98,2106.67,2297.55,2493.69,349.24,350.33,21.76,0000 0000 0000 0000 000000
2014-12-11 07:18:45,0.14,4.21,0.00,22.98,27.99,31.13,4.85,26.51,1026.44,2025.97,2105.53,2296.71,2492.83,349.75,350.78,21.79,0000 0000 0000 0000 000000
2014-12-11 07:23:47,0.15,4.22,0.00,22.95,27.98,31.12,4.77,26.36,1026.40,2025.97,2104.48,2295.82,2491.86,349.37,350.75,21.82,0000 0000 0000 0000 000000
2014-12-11 07:28:48,0.16,4.23,0.00,22.93,27.97,31.13,4.81,26.27,1026.41,2025.97,2103.26,2294.92,2490.88,349.80,350.75,21.85,0000 0000 0000 0000 000000
2014-12-11 07:33:49,0.17,4.23,0.00,22.93,27.97,31.13,4.94,26.50,1026.39,2025.97,2102.19,2293.99,2489.86,350.69,351.80,21.88,0000 0000 0000 0000 000000
2014-12-11 07:38:50,0.22,4.24,0.00,22.91,27.97,31.15,4.91,26.67,1026.40,2025.98,2100.86,2292.94,2488.72,350.42,351.71,21.91,0000 0000 0000 0000 000000
2014-12-11 07:43:51,0.21,4.24,0.00,22.92,27.97,31.13,4.80,26.47,1026.41,2025.99,2099.51,2291.86,2487.65,349.58,350.81,21.94,0000 0000 0000 0000 000000
2014-12-11 07:48:53,0.25,4.25,0.00,22.90,27.97,31.10,4.88,26.60,1026.40,2025.98,2097.88,2290.68,2486.40,350.41,351.38,21.97,0000 0000 0000 0000 000000
2014-12-11 07:53:54,0.23,4.26,0.00,22.91,27.97,31.12,4.84,26.49,1026.41,2025.98,2096.22,2289.44,2485.07,349.83,350.97,22.00,0000 0000 0000 0000 000000
2014-12-11 07:58:55,0.23,4.26,0.00,22.91,27.97,31.11,4.89,26.50,1026.42,2025.99,2094.56,2288.26,2483.82,350.67,351.80,22.03,0000 0000 0000 0000 000000
2014-12-11 08:03:56,0.21,4.27,0.00,22.92,27.97,31.09,4.86,26.36,1026.47,2025.98,2093.10,2287.09,2482.62,349.85,350.87,22.06,0000 0000 0000 0000 000000
2014-12-11 08:08:58,0.23,4.28,0.00,22.93,27.97,31.09,4.83,26.48,1026.57,2025.99,2091.65,2285.90,2481.39,349.86,351.22,22.09,0000 0000 0000 0000 000000
2014-12-11 08:13:59,0.19,4.28,0.00,22.97,27.95,31.10,4.85,26.52,1026.66,2025.99,2090.29,2284.81,2480.30,350.15,351.32,22.12,0000 0000 0000 0000 000000
2014-12-11 08:19:00,0.17,4.29,0.00,22.96,27.95,31.09,4.90,26.53,1026.74,2025.99,2089.05,2283.87,2479.14,349.84,350.94,22.14,0000 0000 0000 0000 000000
2014-12-11 08:24:02,0.17,4.29,0.00,22.92,27.95,31.11,4.91,26.52,1026.83,2025.99,2088.01,2282.94,2478.08,350.12,351.51,22.17,0000 0000 0000 0000 000000
2014-12-11 08:29:03,0.16,4.30,0.00,22.91,27.95,31.10,4.83,26.45,1026.85,2025.98,2086.97,2282.04,2477.07,349.80,351.20,22.20,0000 0000 0000 0000 000000
2014-12-11 08:34:04,0.18,4.30,0.00,22.89,27.95,31.07,4.86,26.57,1026.83,2025.97,2085.85,2281.12,2476.02,350.55,351.86,22.23,0000 0000 0000 0000 000000
2014-12-11 08:39:06,0.22,4.31,0.00,22.89,27.95,31.05,4.88,26.48,1026.80,2025.99,2084.50,2280.08,2474.90,350.34,351.59,22.26,0000 0000 0000 0000 000000
2014-12-11 08:44:07,0.18,4.32,0.00,22.83,27.95,31.06,4.86,26.31,1026.75,2025.97,2083.06,2279.07,2473.84,350.28,351.60,22.29,0000 0000 0000 0000 000000
2014-12-11 08:49:08,0.19,4.32,0.00,22.81,27.94,31.06,4.80,26.29,1026.64,2025.97,2081.80,2278.09,2472.83,349.66,350.77,22.32,0000 0000 0000 0000 000000
2014-12-11 08:54:09,0.18,4.33,0.00,22.88,27.93,31.02,4.87,26.39,1026.53,2025.97,2080.63,2277.14,2471.84,350.17,351.40,22.35,0000 0000 0000 0000 000000
2014-12-11 08:59:11,0.19,4.33,0.00,22.89,27.92,31.06,4.89,26.38,1026.60,2025.97,2079.35,2276.20,2470.82,350.15,351.41,22.38,0000 0000 0000 0000 000000
2014-12-11 09:04:12,0.20,4.34,0.00,22.88,27.92,31.04,4.79,26.52,1026.52,2025.98,2077.93,2275.22,2469.78,349.99,351.23,22.41,0000 0000 0000 0000 000000
2014-12-11 09:09:14,0.21,4.34,0.00,22.90,27.92,31.04,4.92,26.46,1026.41,2025.98,2076.50,2274.19,2468.68,350.00,351.25,22.44,0000 0000 0000 0000 000000
2014-12-11 09:14:15,0.17,4.35,0.00,22.89,27.92,31.07,4.81,26.52,1026.43,2025.99,2075.13,2273.20,2467.73,349.86,350.99,22.47,0000 0000 0000 0000 000000
2014-12-11 09:19:16,0.19,4.36,0.00,22.88,27.92,31.06,4.87,26.58,1026.45,2025.98,2073.92,2272.29,2466.73,349.80,351.18,22.50,0000 0000 0000 0000 000000
2014-12-11 09:24:18,0.18,4.36,0.00,22.84,27.91,31.03,4.91,26.51,1026.45,2025.99,2072.76,2271.47,2465.71,350.01,351.35,22.53,0000 0000 0000 0000 000000
2014-12-11 09:29:19,0.19,4.37,0.00,22.84,27.90,31.04,4.89,26.46,1026.43,2025.99,2071.56,2270.46,2464.74,350.14,351.37,22.55,0000 0000 0000 0000 000000
2014-12-11 09:34:20,0.15,4.37,0.00,22.86,27.90,31.03,4.86,26.63,1026.43,2025.99,2070.83,2269.53,2463.54,349.24,350.40,22.58,0000 0000 0000 0000 000000
2014-12-11 09:39:22,0.22,4.38,0.00,22.87,27.90,31.02,4.93,26.54,1026.43,2025.97,2069.36,2268.44,2462.27,350.24,351.10,22.61,0000 0000 0000 0000 000000
2014-12-11 09:44:23,0.22,4.38,0.00,22.84,27.90,31.00,4.82,26.51,1026.42,2025.97,2067.74,2267.44,2461.21,350.05,351.28,22.64,0000 0000 0000 0000 000000
2014-12-11 09:49:25,0.19,4.39,0.00,22.79,27.89,30.97,4.77,26.48,1026.41,2025.98,2066.36,2266.35,2460.22,349.67,350.95,22.67,0000 0000 0000 0000 000000
2014-12-11 09:54:26,0.23,4.40,0.00,22.79,27.87,30.99,4.85,26.42,1026.44,2025.99,2064.77,2265.31,2459.06,349.59,350.90,22.70,0000 0000 0000 0000 000000
2014-12-11 09:59:28,0.31,4.40,0.00,22.77,27.87,30.98,4.84,26.45,1026.61,2025.98,2062.94,2263.89,2457.54,350.54,351.83,22.73,0000 0000 0000 0000 000000
2014-12-11 10:04:29,0.39,4.42,0.00,22.73,27.87,30.95,4.84,26.42,1026.53,2025.99,2060.23,2262.06,2455.66,349.91,351.44,22.76,0000 0000 0000 0000 000000
2014-12-11 10:09:30,0.32,4.43,0.00,22.71,27.85,30.96,4.84,26.43,1026.47,2025.99,2057.76,2260.42,2453.93,349.99,351.38,22.79,0000 0000 0000 0000 000000
2014-12-11 10:14:31,0.28,4.43,0.00,22.70,27.85,30.98,4.86,26.43,1026.58,2025.99,2055.71,2259.02,2452.57,349.79,351.01,22.82,0000 0000 0000 0000 000000
2014-12-11 10:19:32,0.18,4.44,0.00,22.71,27.85,30.97,4.87,26.38,1026.63,2025.99,2054.30,2258.01,2451.44,349.97,351.63,22.85,0000 0000 0000 0000 000000
2014-12-11 10:24:34,0.17,4.45,0.00,22.72,27.83,30.95,4.81,26.57,1026.50,2025.99,2053.24,2257.06,2450.34,350.06,351.50,22.88,0000 0000 0000 0000 000000
2014-12-11 10:29:35,0.17,4.45,0.00,22.71,27.82,30.96,4.87,26.53,1026.53,2026.00,2052.11,2256.10,2449.15,350.07,351.49,22.91,0000 0000 0000 0000 000000
2014-12-11 10:34:36,0.20,4.46,0.00,22.70,27.82,30.93,4.80,26.44,1026.43,2026.00,2050.87,2255.13,2448.08,349.69,351.14,22.94,0000 0000 0000 0000 000000
2014-12-11 10:39:38,0.24,4.46,0.00,22.67,27.81,30.94,4.81,26.60,1026.55,2026.00,2049.22,2254.08,2447.03,349.95,351.31,22.97,0000 0000 0000 0000 000000
2014-12-11 10:44:39,0.23,4.47,0.00,22.67,27.80,30.89,4.88,26.47,1026.68,2026.00,2047.49,2252.94,2445.95,350.40,351.79,22.99,0000 0000 0000 0000 000000
2014-12-11 10:49:40,0.19,4.48,0.00,22.65,27.80,30.91,4.87,26.55,1026.55,2026.00,2046.39,2251.92,2444.83,349.97,351.47,23.02,0000 0000 0000 0000 000000
2014-12-11 10:54:42,0.18,4.48,0.00,22.65,27.78,30.89,4.84,26.48,1026.61,2026.01,2045.12,2250.98,2443.77,350.36,352.03,23.05,0000 0000 0000 0000 000000
2014-12-11 10:59:43,0.20,4.49,0.00,22.65,27.77,30.90,4.88,26.48,1026.74,2026.00,2043.85,2249.98,2442.69,350.45,351.90,23.08,0000 0000 0000 0000 000000
2014-12-11 11:04:44,0.20,4.49,0.00,22.57,27.77,30.89,4.85,26.52,1026.79,2026.01,2042.49,2249.01,2441.68,350.13,351.66,23.11,0000 0000 0000 0000 000000
2014-12-11 11:09:45,0.19,4.50,0.00,22.62,27.76,30.87,4.90,26.47,1026.78,2026.02,2041.08,2248.07,2440.67,350.46,351.99,23.14,0000 0000 0000 0000 000000
2014-12-11 11:14:46,0.21,4.51,0.00,22.62,27.75,30.86,4.87,26.48,1026.61,2026.03,2039.71,2247.13,2439.70,350.07,351.66,23.17,0000 0000 0000 0000 000000
2014-12-11 11:19:47,0.19,4.51,0.00,22.63,27.75,30.86,4.81,26.53,1026.59,2026.03,2038.40,2246.15,2438.67,349.58,351.36,23.20,0000 0000 0000 0000 000000
2014-12-11 11:24:49,0.19,4.52,0.00,22.65,27.74,30.84,4.89,26.52,1026.57,2026.04,2037.21,2245.14,2437.58,350.26,351.64,23.23,0000 0000 0000 0000 000000
2014-12-11 11:29:50,0.23,4.52,0.00,22.62,27.72,30.83,4.85,26.55,1026.50,2026.05,2035.75,2244.10,2436.30,349.84,351.36,23.26,0000 0000 0000 0000 000000
2014-12-11 11:34:51,0.24,4.53,0.00,22.58,27.72,30.84,4.85,26.61,1026.45,2026.06,2034.10,2242.92,2435.04,350.14,351.45,23.29,0000 0000 0000 0000 000000
2014-12-11 11:39:52,0.29,4.54,0.00,22.59,27.71,30.79,4.88,26.77,1026.40,2026.08,2032.27,2241.66,2433.74,350.14,351.67,23.32,0000 0000 0000 0000 000000
2014-12-11 11:44:54,0.23,4.55,0.00,22.59,27.70,30.81,4.90,26.57,1026.39,2026.10,2030.57,2240.62,2432.72,350.38,351.76,23.35,0000 0000 0000 0000 000000
2014-12-11 11:49:55,0.25,4.55,0.00,22.59,27.70,30.81,4.85,26.55,1026.39,2026.26,2028.98,2239.65,2431.72,349.98,351.39,23.37,0000 0000 0000 0000 000000
2014-12-11 11:54:56,0.20,4.56,0.00,22.60,27.67,30.78,4.87,26.55,1026.39,2026.22,2027.49,2238.64,2430.57,349.97,351.52,23.40,0000 0000 0000 0000 000000
2014-12-11 11:59:57,0.26,4.57,0.00,22.53,27.67,30.76,4.79,26.57,1026.39,2026.36,2025.84,2237.56,2429.47,349.77,351.42,23.43,0000 0000 0000 0000 000000
2014-12-11 12:04:59,0.31,4.57,0.00,22.51,27.66,30.77,4.92,26.53,1026.39,2026.70,2024.36,2236.50,2428.34,349.97,351.72,23.46,0000 0000 0000 0000 000000
2014-12-11 12:10:00,0.26,4.58,0.00,22.48,27.65,30.77,4.95,26.54,1026.40,2026.91,2022.77,2235.38,2427.02,350.72,352.32,23.49,0000 0000 0000 0000 000000
2014-12-11 12:15:01,0.26,4.59,0.00,22.44,27.65,30.76,4.87,26.59,1026.40,2026.95,2021.06,2234.06,2425.57,350.21,352.04,23.52,0000 0000 0000 0000 000000
2014-12-11 12:20:02,0.28,4.60,0.00,22.42,27.63,30.71,4.90,26.52,1026.39,2026.95,2019.11,2232.72,2424.20,349.67,351.39,23.55,0000 0000 0000 0000 000000
2014-12-11 12:25:04,0.30,4.61,0.00,22.49,27.62,30.69,4.86,26.62,1026.39,2026.94,2017.10,2231.49,2422.73,350.64,352.21,23.58,0000 0000 0000 0000 000000
2014-12-11 12:30:05,0.28,4.62,0.00,22.48,27.62,30.70,4.86,26.61,1026.38,2026.97,2015.17,2230.14,2421.40,349.62,351.27,23.61,0000 0000 0000 0000 000000
2014-12-11 12:35:05,0.31,4.63,0.00,22.46,27.60,30.69,4.91,26.53,1026.38,2026.99,2013.03,2228.79,2419.96,350.15,352.02,23.64,0000 0000 0000 0000 000000
2014-12-11 12:40:07,0.31,4.63,0.00,22.46,27.59,30.67,4.84,26.87,1026.38,2026.98,2010.92,2227.38,2418.50,350.31,351.92,23.67,0000 0000 0000 0000 000000
2014-12-11 12:45:08,0.27,4.64,0.00,22.49,27.57,30.64,4.86,26.68,1026.37,2026.99,2008.90,2226.07,2417.08,350.44,352.06,23.70,0000 0000 0000 0000 000000
2014-12-11 12:50:09,0.21,4.65,0.00,22.45,27.57,30.68,4.82,26.52,1026.38,2026.99,2007.36,2224.97,2415.89,349.80,351.52,23.73,0000 0000 0000 0000 000000
2014-12-11 12:55:11,0.24,4.66,0.00,22.42,27.55,30.65,4.87,26.63,1026.37,2026.99,2005.79,2223.91,2414.74,350.20,351.89,23.76,0000 0000 0000 0000 000000
2014-12-11 13:00:12,0.26,4.66,0.00,22.35,27.55,30.62,4.88,26.56,1026.37,2026.99,2004.01,2222.71,2413.49,349.99,351.60,23.79,0000 0000 0000 0000 000000